Weather observations for the past three days for
Unalakleet
Imperial (Metric)
Date Time (akdt) Wind (mph) Vis. (mi.) Weather Sky Cond. Temperature (ºF) Relative Humidity Wind Chill (°F) Heat Index (°F) Pressure Precipitation (in)
Air Dwpt 6 hour altimeter (in) sea level (mb) 1 hr 3 hr 6 hr
Max. Min.
17 02:56 E 3 10.00 Overcast SCT019 OVC049 44.1 42.1 93% 29.84 1010.8
17 01:56 E 5 10.00 Mostly Cloudy SCT019 BKN049 43 42.1 97% 41 29.84 1010.6
17 00:56 W 3 10.00 Overcast OVC042 48.9 43 80% 29.83 1010.3
16 23:56 NW 3 10.00 Overcast OVC046 48.9 42.1 77% 29.82 1010.2
16 22:56 W 3 10.00 Overcast OVC050 48.9 42.1 77% 29.82 1010.1
16 21:56 W 3 10.00 Overcast OVC050 48.9 42.1 51.1 48.9 77% 29.81 1009.6
16 20:56 W 6 10.00 Mostly Cloudy BKN050 50 42.1 74% 48 29.8 1009.6
16 19:56 SW 6 10.00 Overcast OVC037 50 42.1 74% 48 29.8 1009.4
16 18:56 W 7 10.00 Overcast SCT018 OVC031 50 43 77% 48 29.8 1009.5
16 17:56 SW 10 10.00 Overcast SCT016 BKN024 OVC029 48.9 44.1 83% 45 29.8 1009.3
16 16:56 W 12 10.00 Overcast BKN024 OVC038 50 44.1 80% 46 29.79 1009.2
16 15:56 W 8 10.00 Overcast SCT013 BKN020 OVC025 51.1 46 53.1 48 83% 29.79 1009.0
16 14:56 W 8 10.00 Overcast FEW025 OVC038 51.1 48 89% 29.78 1008.9
16 13:56 SW 10 10.00 Light Rain FEW014 BKN019 OVC047 50 46.9 89% 46 29.78 1008.8
16 12:56 SE 5 10.00 Light Rain BKN037 OVC046 52 46 80% 29.77 1008.6
16 11:56 E 6 10.00 Light Rain FEW031 OVC048 50 46 86% 48 29.78 1008.6
16 10:56 Calm 10.00 Light Rain FEW014 BKN036 OVC055 48.9 44.1 83% 29.78 1008.6
16 09:56 SW 3 4.00 Rain Fog/Mist OVC010 48.9 46 50 48 90% 29.77 1008.4
16 08:56 W 5 10.00 Light Rain OVC045 48.9 45 86% 48 29.76 1008.2
16 07:56 S 6 6.00 Rain Fog/Mist SCT010 BKN016 OVC021 50 46.9 89% 48 29.75 1007.8
16 06:56 SE 5 10.00 Overcast FEW013 BKN019 OVC024 48.9 46 90% 48 29.74 1007.6
16 05:56 E 7 10.00 Overcast SCT026 SCT031 OVC047 48 46 93% 45 29.74 1007.5
16 04:56 E 7 10.00 Overcast OVC049 48 46 93% 45 29.74 1007.4
16 03:56 SE 8 10.00 Overcast FEW011 BKN017 OVC024 50 48 54 48.9 93% 47 29.74 1007.3
16 02:56 S 14 10.00 Overcast FEW016 BKN022 OVC031 51.1 46.9 86% 29.73 1007.1
16 01:56 SE 6 10.00 Overcast FEW023 OVC032 48.9 46.9 93% 47 29.73 1007.0
16 00:56 SE 6 4.00 Light Rain Fog/Mist FEW022 BKN036 OVC049 48.9 48 97% 47 29.72 1006.7
15 23:56 SE 7 10.00 Overcast SCT022 BKN029 OVC055 51.1 48 89% 29.71 1006.5
15 22:56 SE 3 10.00 Overcast FEW025 SCT049 OVC060 54 46 75% 29.7 1006.2
15 21:56 S 3 10.00 Overcast OVC055 54 45 55 53.1 72% 29.69 1005.7
15 20:56 Calm 10.00 Fair CLR 54 46 75% 29.68 1005.5
15 19:56 Vrbl 3 10.00 A Few Clouds FEW045 54 46.9 77% 29.68 1005.3
15 18:56 SW 5 10.00 Fair CLR 54 46 75% 29.68 1005.3
15 17:56 SW 5 10.00 Partly Cloudy FEW031 SCT046 SCT055 54 46 75% 29.67 1004.9
15 16:56 E 6 9.00 Overcast SCT016 BKN022 OVC039 53.1 46.9 80% 29.67 1004.9
15 15:56 SW 5 10.00 Light Rain OVC039 53.1 46 54 50 77% 29.66 1004.5
15 14:56 E 6 10.00 Light Rain FEW034 OVC045 50 46 86% 48 29.65 1004.3
15 13:56 E 13 G 16 10.00 Light Rain SCT024 BKN031 OVC040 52 46 80% 29.63 1003.6
15 12:56 N 5 10.00 Light Rain BKN026 OVC035 51.1 46.9 86% 29.62 1003.3
15 11:56 E 12 10.00 Light Rain FEW023 OVC035 51.1 45 80% 29.61 1003.1
15 10:56 E 9 10.00 Light Rain OVC028 51.1 44.1 77% 29.61 1002.9
15 09:56 E 13 10.00 Overcast SCT026 BKN065 OVC090 50 44.1 50 45 80% 46 29.59 1002.5
15 08:56 E 15 10.00 Partly Cloudy FEW002 SCT070 48.9 43 80% 44 29.58 1002.0
15 07:56 E 15 10.00 Partly Cloudy FEW041 SCT090 46 42.1 86% 40 29.57 1001.6
15 06:56 E 14 10.00 Overcast SCT023 BKN040 OVC075 46 41 83% 40 29.56 1001.4
15 05:56 E 16 G 22 10.00 Overcast SCT025 OVC060 46 39.9 79% 40 29.55 1001.1
15 04:56 E 14 10.00 Overcast OVC029 46 41 83% 40 29.55 1001.0
15 03:56 NE 9 10.00 Mostly Cloudy FEW029 SCT049 BKN075 45 41 51.1 44.1 86% 41 29.54 1000.6
15 02:56 E 16 10.00 Overcast OVC031 46 39.9 79% 40 29.53 1000.4
15 01:56 E 9 10.00 Mostly Cloudy BKN031 45 39.9 83% 41 29.53 1000.2
15 00:56 NE 8 10.00 Fair CLR 44.1 39 83% 40 29.51 999.6
14 23:56 SE 8 10.00 A Few Clouds FEW036 46.9 39.9 77% 44 29.5 999.3
14 22:56 S 13 10.00 Partly Cloudy SCT042 48.9 39 69% 44 29.5 999.2
14 21:56 SE 15 10.00 A Few Clouds FEW002 50 37.9 55 50 63% 45 29.49 998.9
14 20:56 SE 13 G 23 10.00 Fair CLR 53.1 39 59% 29.47 998.3
14 19:56 SE 18 10.00 Overcast FEW002 OVC045 55 41 59% 29.46 997.9
14 18:56 SE 21 G 24 10.00 Mostly Cloudy and Breezy BKN047 BKN085 54 39 57% 29.46 997.8
14 17:56 SE 16 G 26 10.00 Overcast FEW002 OVC038 54 39.9 59% 29.46 997.8
14 16:56 SE 18 G 23 10.00 Overcast OVC034 53.1 39.9 61% 29.45 997.7
14 15:56 SE 14 10.00 Overcast OVC034 51.1 41 53.1 51.1 69% 29.45 997.4
14 14:56 SE 13 10.00 Overcast OVC032 51.1 41 69% 29.43 997.0
14 13:56 E 14 10.00 Overcast OVC038 52 39.9 64% 29.41 996.2
14 12:56 SE 10 10.00 Mostly Cloudy SCT031 BKN038 52 39.9 64% 29.4 995.9
14 11:56 E 17 10.00 Mostly Cloudy BKN035 53.1 42.1 66% 29.38 995.3
14 10:56 SE 15 10.00 Partly Cloudy SCT036 52 42.1 69% 29.37 994.8
14 09:56 SE 8 10.00 Overcast FEW002 BKN040 OVC049 53.1 44.1 53.1 50 72% 29.36 994.7
14 08:56 S 13 G 20 10.00 Overcast FEW020 BKN025 OVC031 50 44.1 80% 46 29.35 994.3
14 07:56 E 8 10.00 Light Rain BKN030 OVC045 51.1 48 89% 29.33 993.6
14 06:56 NE 7 10.00 Overcast BKN060 OVC070 51.1 48.9 92% 29.33 993.5
14 05:56 E 9 10.00 Light Rain OVC060 51.1 48.9 92% 29.33 993.6
14 04:56 E 7 10.00 Light Rain OVC070 50 48.9 96% 48 29.34 993.8
14 03:56 NE 9 10.00 Light Rain OVC060 51.1 50 54 51.1 96% 29.34 994.0
Date Time (akdt) Wind (mph) Vis. (mi.) Weather Sky Cond. Air Dwpt Max. Min. Relative Humidity Wind Chill (°F) Heat Index (°F) altimeter (in) sea level (mb) 1 hr 3 hr 6 hr
6 hour
Temperature (ºF) Pressure Precipitation (in)